FENGYUN 1C DEB, 33740

Orbit data source: Space-Track

FENGYUN 1C DEB, 33740 is space debris in SSO originally from a launch on Mon, 10 May 1999 UTC launched from the Taiyaun Space Center, China (TSC). Fengyun 1C debris stems from the Chinese weather satellite Fengyun-1C, which was intentionally destroyed by a Chinese anti-satellite missile in 2007. This event dramatically increased the amount of space debris, with thousands of trackable fragments posing hazards to satellites and human spaceflight. The Fengyun 1C debris cloud has become a focal point in discussions about space sustainability and the need for international regulations to prevent the creation of new debris.

Loading next visibility...
Identifier
33740, 1999-025DJD
Orbit
SSO
Country
Flag of CNCN / PRC
Related business
Manufacturer
Unknown
Mission
Spacecraft
Bus & Motor
Unknown
Mass
Unknown
Launch date (UTC)
1999-05-10 (27 years ago)
Launch vehicle
Unknown
Launch site
Taiyaun Space Center, China (TSC)
Object type
Payload
Rocket body
Debris
Shape & HBR
Unknown shape, 0.1 m
Radar Cross Section
Small (<0.1 m²)

Expand to show TLE details & history
Last TLE update: 23 hours ago

TLE from 23 hours ago
0 FENGYUN 1C DEB
1 33740U 99025DJD 26253.24593179  .00000143  00000-0  10051-3 0  9998
2 33740  98.6817 262.7713 0002554  96.4057 263.7406 14.12451161939794
Epoch: 2026-09-10T05:54Z
TLE epoch observation values (Epoch: 2026-09-10T05:54:08.506Z)
Latitude
-0.00006°
Longitude
-175.05053°
Altitude
854.103 km
Speed
7.425 km/s
True Right ascension
17h 31m 05s
True Declination
0° 00' 00"
Sunlit
Object was in daylight at epoch
Visualization orbit readout
Latitude
Unknown
Longitude
Unknown
Altitude
Unknown
Speed
Unknown
Apparent Right ascension
Unknown
Apparent Declination
Unknown
Sunlit
N/A
Visualization observer readout
Local Sidereal Time
20:56:30
Azimuth
Unknown
Elevation
Unknown
Doppler factor
Unknown
Orbital elements
Apogee altitude
850.009 km
Perigee altitude
846.318 km
Semi-major axis
7,226.3 km
Eccentricity
0.00026
Inclination
98.6817°
RAAN
262.7713°
Arg. of periapsis
96.4057°
True anomaly
263.71151°
Mean anomaly
263.7406°
Eccentric anomaly
263.72605°
Mean motion
3.53321 °/min
Orbital period
101.89 mins
BSTAR
0.00010051
Loading maneuver chart data...
Computing Atmospheric mass density...

Documentation

Showing up to 5 results
|